[[{"header":{"parameterUnit":"m.s-1","parameterCategory":2,"la1":30.2991,"la2":30.254,"lo1":-89.0895,"lo2":-89.0444,"dy":0.0017,"dx":0.0017,"nx":28,"ny":28,"refTime":"2023-07-20T09:00:00:Z","depth":"0","parameterNumber":2,"parameterNumberName":"U-component_of_CURRENTS"},"data":[0,0,0,0,0,0,0,0,0,0,0,0,0,0,0,0,0,0,0,0,0,0,0,0,0,0,0,0,0,0,0,0,0,0,0,0,0,0,0,0,0,0,0,0,0,0,0,0,0,0,0,0,0,0,0,0,0,0,0.3106,0.3108,0,0.3264,0.3266,0.3268,0.3252,0.3249,0.3246,0.3243,0.3083,0.3082,0.3081,0,0,0,0,0,0,0,0,0,0,0,0,0,0.2849,0.2854,0.3106,0.3108,0.3109,0.3263,0.3266,0.3269,0.3252,0.3248,0.3245,0.3241,0.3084,0.3082,0.3081,0,0,0,0,0,0,0,0,0,0,0,0,0,0.2985,0.2856,0.3106,0.3114,0.3116,0.3263,0.3266,0.327,0.3253,0.3248,0.3244,0.3239,0.3084,0.3082,0.308,0.316,0,0,0.3074,0.3073,0,0,0,0,0,0,0,0,0.2977,0.2995,0.3112,0.3114,0.3116,0.3228,0.3117,0.3215,0.3254,0.3208,0.3243,0.3237,0.3101,0.3098,0.3151,0.3152,0.3146,0.3074,0.3073,0.3072,0.3071,0,0,0,0,0,0,0,0.2968,0.2989,0.3175,0.3114,0.3116,0.313,0.3144,0.3138,0.3178,0.3212,0.3209,0.3218,0.3101,0.3154,0.3146,0.3143,0.3074,0.3072,0.3071,0.307,0.3087,0.3089,0,0,0,0,0,0,0.2939,0.2981,0.317,0.3179,0.3027,0.3137,0.3154,0.3202,0.3185,0.3178,0.3222,0.3217,0.316,0.3149,0.314,0.3089,0.3072,0.307,0.3069,0.3085,0.3088,0.3089,0,0,0,0,0,0,0.2934,0.2956,0.3163,0.3075,0.3101,0.3146,0.32,0.3207,0.3271,0.3195,0.3182,0.3277,0.3156,0.3143,0.3058,0.3086,0.3069,0.3067,0.3083,0.3086,0.3088,0.3076,0,0,0,0,0,0,0.2927,0.2955,0.2998,0.3075,0.3105,0.3222,0.3204,0.3213,0.3279,0.3275,0.3238,0.3219,0.3151,0.3061,0.3056,0.3083,0.3065,0.3081,0.3085,0.3088,0.3074,0.3078,0.3081,0,0,0,0,0,0.2918,0.2955,0.3,0.3023,0.3158,0.3222,0.324,0.3259,0.3286,0.3305,0.3234,0.322,0.308,0.3058,0.3052,0.308,0.308,0.3084,0.3087,0.3073,0.3077,0.3081,0,0,0,0,0,0,0.2834,0.296,0.3009,0.3079,0.3143,0.3215,0.3228,0.3295,0.3284,0.3255,0.3208,0.3182,0.3122,0.3121,0.31,0.3103,0.3096,0.3098,0.3087,0.3091,0.3094,0.3146,0.3064,0,0,0,0,0,0.2853,0.294,0.3029,0.3091,0.3108,0.32,0.3241,0.3269,0.3266,0.3266,0.3254,0.3217,0.3151,0.3125,0.3077,0.3082,0.3082,0.3113,0.3116,0.3118,0.3161,0.3157,0.3162,0.3102,0.3102,0.3102,0,0,0.2841,0.2921,0.2971,0.3085,0.3129,0.3161,0.3211,0.3259,0.3296,0.3242,0.3263,0.3215,0.3149,0.3105,0.3091,0.3098,0.313,0.3123,0.3125,0.3168,0.3161,0.3167,0.3172,0.3104,0.3104,0.3104,0,0,0.2817,0.2921,0.2962,0.3011,0.3085,0.3147,0.3172,0.3267,0.33,0.3323,0.3267,0.3247,0.321,0.3165,0.313,0.3155,0.3131,0.3152,0.3219,0.3212,0.3216,0.322,0.3189,0.3191,0.3171,0.3171,0.3171,0,0.2774,0.2873,0.2975,0.2993,0.3019,0.314,0.3147,0.3221,0.3289,0.3301,0.3306,0.3281,0.3249,0.318,0.3187,0.3165,0.3136,0.3189,0.3213,0.3218,0.3222,0.3189,0.3191,0.317,0.317,0.3171,0.3171,0,0.2789,0.2841,0.2846,0.2938,0.2977,0.301,0.3091,0.3161,0.3243,0.3309,0.3307,0.3284,0.3268,0.3277,0.3234,0.3255,0.3211,0.3194,0.3193,0.3227,0.319,0.3192,0.317,0.317,0.317,0.317,0,0,0.2709,0.2839,0.283,0.2853,0.2952,0.2979,0.303,0.3107,0.3144,0.3245,0.3279,0.3266,0.331,0.3283,0.3262,0.3306,0.3317,0.3281,0.3281,0.3234,0.3265,0.3177,0.317,0.3274,0.3275,0.3276,0.3211,0,0.267,0.2703,0.2787,0.2801,0.2806,0.2907,0.2945,0.3023,0.3109,0.318,0.3233,0.3235,0.329,0.327,0.3329,0.3316,0.3329,0.3336,0.3258,0.3257,0.316,0.3173,0.3005,0.2928,0.3213,0.3213,0.3213,0,0.2628,0.2665,0.2652,0.2733,0.2739,0.2764,0.2835,0.2893,0.2999,0.3057,0.3118,0.3165,0.3242,0.3282,0.3336,0.3322,0.331,0.3322,0.3317,0.3257,0.3174,0.2952,0.2921,0.2993,0.3216,0.3216,0.3216,0,0.2498,0.2566,0.2559,0.2576,0.2669,0.267,0.2744,0.2832,0.2869,0.2973,0.2999,0.3103,0.3132,0.3194,0.3295,0.3282,0.3351,0.331,0.3208,0.3199,0.3063,0.304,0.3088,0.3325,0.3325,0.3326,0.3326,0,0.2421,0.2413,0.2495,0.2474,0.2452,0.2561,0.2562,0.264,0.2747,0.2761,0.2916,0.2935,0.3115,0.319,0.3266,0.3272,0.3315,0.3236,0.3189,0.305,0.3028,0.3091,0.3071,0.3323,0.3324,0.3324,0.3325,0,0.2265,0.2327,0.2278,0.2344,0.2364,0.2323,0.2436,0.2476,0.2577,0.2596,0.2619,0.28,0.2895,0.3066,0.3165,0.3185,0.3141,0.3199,0.3029,0.2964,0.2896,0.2878,0.2622,0.2611,0.3038,0.3036,0.3034,0,0.2215,0.2173,0.2128,0.209,0.2108,0.2123,0.2163,0.2324,0.2373,0.249,0.2488,0.261,0.2678,0.2839,0.292,0.3001,0.3016,0.2863,0.2829,0.2893,0.2839,0.2677,0.2679,0.262,0.2615,0.2611,0.2607,0,0.2087,0.2023,0.1968,0.1882,0.1867,0.1907,0.1988,0.2,0.2174,0.2193,0.225,0.2315,0.2453,0.2517,0.2659,0.2679,0.2734,0.277,0.288,0.2565,0.2345,0.2312,0.2666,0.2569,0.2573,0.2576,0.2578,0.2579,0.1925,0.1842,0.1752,0.1681,0.1671,0.172,0.1732,0.1826,0.1854,0.1893,0.2004,0.2048,0.2222,0.2388,0.2418,0.2442,0.2396,0.2421,0.2403,0.2245,0.2207,0.2481,0.2311,0.2313,0.2315,0.2317,0.2319,0,0.1696,0.1691,0.1632,0.1523,0.1525,0.1591,0.1648,0.1655,0.1635,0.1685,0.1709,0.1846,0.1943,0.2118,0.2208,0.2162,0.2042,0.2163,0.1963,0.2004,0.2299,0.2269,0.203,0.203,0.203,0.203,0.203,0.203,0.1585,0.1472,0.1497,0.1436,0.1431,0.1417,0.1446,0.1405,0.1423,0.1417,0.1467,0.1578,0.1899,0.2075,0.2145,0.2071,0.2021,0.1758,0.1932,0.2247,0.2274,0.2299,0.2279,0.2046,0.2046,0.1553,0.155,0.1547]},{"header":{"parameterUnit":"m.s-1","parameterCategory":2,"la1":30.2991,"la2":30.254,"lo1":-89.0895,"lo2":-89.0444,"dy":0.0017,"dx":0.0017,"nx":28,"ny":28,"refTime":"2023-07-20T09:00:00:Z","depth":"0","parameterNumber":3,"parameterNumberName":"V-component_of_CURRENTS"},"data":[0,0,0,0,0,0,0,0,0,0,0,0,0,0,0,0,0,0,0,0,0,0,0,0,0,0,0,0,0,0,0,0,0,0,0,0,0,0,0,0,0,0,0,0,0,0,0,0,0,0,0,0,0,0,0,0,0,0,0.0224,0.0226,0,0.0286,0.0286,0.0286,0.0258,0.0257,0.0257,0.0256,0.0265,0.0265,0.0266,0,0,0,0,0,0,0,0,0,0,0,0,0,0.0145,0.0146,0.0224,0.0226,0.0228,0.0286,0.0286,0.0286,0.0258,0.0257,0.0257,0.0256,0.0265,0.0265,0.0266,0,0,0,0,0,0,0,0,0,0,0,0,0,0.0178,0.0146,0.0224,0.0231,0.0233,0.0287,0.0286,0.0286,0.0258,0.0257,0.0257,0.0256,0.0264,0.0265,0.0266,0.0282,0,0,0.0269,0.0269,0,0,0,0,0,0,0,0,0.0176,0.018,0.0228,0.023,0.0233,0.0275,0.0262,0.0286,0.0258,0.0235,0.0256,0.0256,0.0272,0.0272,0.0267,0.0283,0.0283,0.0269,0.0269,0.0269,0.027,0,0,0,0,0,0,0,0.0174,0.0177,0.0236,0.023,0.0234,0.0254,0.0256,0.0266,0.0245,0.0237,0.0238,0.0266,0.0271,0.0267,0.0268,0.0283,0.0269,0.0269,0.027,0.027,0.029,0.029,0,0,0,0,0,0,0.019,0.0175,0.0234,0.0239,0.0217,0.0256,0.0258,0.0251,0.0246,0.0249,0.0266,0.0264,0.0265,0.0267,0.0268,0.0282,0.0269,0.027,0.0271,0.029,0.029,0.029,0,0,0,0,0,0,0.0187,0.0193,0.0232,0.0221,0.0229,0.0259,0.0252,0.0253,0.0276,0.0271,0.027,0.0291,0.0265,0.0267,0.0265,0.0282,0.0271,0.0271,0.029,0.029,0.029,0.0313,0,0,0,0,0,0,0.0184,0.019,0.0182,0.0221,0.023,0.0275,0.0254,0.0255,0.0298,0.0296,0.0292,0.0291,0.0265,0.0263,0.0265,0.0283,0.0272,0.029,0.029,0.029,0.0312,0.0314,0.0315,0,0,0,0,0,0.018,0.0187,0.018,0.0188,0.0219,0.0278,0.0283,0.0295,0.0301,0.0311,0.0288,0.0292,0.0265,0.0264,0.0266,0.0285,0.029,0.029,0.029,0.0311,0.0313,0.0315,0,0,0,0,0,0,0.0169,0.0187,0.018,0.0195,0.0237,0.0278,0.0292,0.0319,0.0313,0.0307,0.0292,0.0288,0.0293,0.0287,0.0286,0.0288,0.028,0.028,0.0295,0.0297,0.0299,0.0344,0.0273,0,0,0,0,0,0.0159,0.0149,0.0196,0.0208,0.0226,0.0264,0.029,0.0312,0.0326,0.0324,0.0321,0.0307,0.0294,0.0294,0.0282,0.0292,0.0294,0.0304,0.0306,0.0307,0.0344,0.0337,0.0342,0.029,0.029,0.029,0,0,0.0174,0.0173,0.0177,0.0203,0.0224,0.0255,0.0274,0.0328,0.0358,0.0327,0.0341,0.032,0.0297,0.0288,0.0292,0.0288,0.0318,0.0307,0.0308,0.0346,0.0338,0.0343,0.0348,0.029,0.029,0.029,0,0,0.0208,0.018,0.0194,0.0204,0.0249,0.0271,0.0299,0.0349,0.0367,0.0391,0.0361,0.0361,0.0349,0.0331,0.032,0.0335,0.0326,0.0323,0.037,0.0361,0.0366,0.0371,0.0361,0.0365,0.0323,0.0323,0.0323,0,0.0215,0.0225,0.0218,0.0225,0.0235,0.0282,0.0315,0.0344,0.039,0.0414,0.0399,0.0397,0.0375,0.0379,0.0363,0.0345,0.0329,0.0363,0.0365,0.037,0.0374,0.0363,0.0367,0.0324,0.0324,0.0323,0.0323,0,0.0254,0.0256,0.0266,0.0262,0.0276,0.0313,0.0351,0.0384,0.0414,0.0449,0.0483,0.0452,0.0456,0.0438,0.0401,0.0419,0.0393,0.0367,0.0364,0.0381,0.0368,0.0371,0.0325,0.0325,0.0325,0.0324,0,0,0.0268,0.0291,0.0289,0.0291,0.0291,0.032,0.0355,0.0417,0.0461,0.0499,0.0549,0.0531,0.0542,0.0532,0.0497,0.049,0.0483,0.0439,0.0438,0.0438,0.0456,0.0457,0.046,0.0442,0.0443,0.0444,0.0429,0,0.0297,0.0334,0.0323,0.035,0.0368,0.0369,0.0394,0.0444,0.0487,0.0539,0.0568,0.0585,0.057,0.0556,0.056,0.0497,0.0496,0.0491,0.0436,0.0435,0.0441,0.0467,0.0473,0.0462,0.0432,0.0432,0.0433,0,0.0305,0.0335,0.0383,0.0389,0.0394,0.0409,0.0441,0.0473,0.0545,0.0576,0.063,0.0644,0.0664,0.063,0.061,0.0598,0.0546,0.0505,0.0502,0.0511,0.0444,0.0444,0.0469,0.0456,0.0438,0.0437,0.0437,0,0.0309,0.0344,0.0389,0.0383,0.0421,0.0436,0.0448,0.0496,0.0531,0.0601,0.0631,0.0679,0.0684,0.0661,0.0613,0.0592,0.0578,0.0531,0.0499,0.0497,0.0504,0.0502,0.0526,0.0528,0.0528,0.0528,0.0528,0,0.0311,0.0343,0.0401,0.0423,0.0448,0.0451,0.0485,0.0508,0.0564,0.0611,0.0652,0.0698,0.0685,0.0686,0.0637,0.06,0.0603,0.0538,0.0506,0.0508,0.0507,0.0496,0.0453,0.0527,0.0527,0.0527,0.0528,0,0.0328,0.0363,0.0393,0.0444,0.0452,0.0459,0.0477,0.0515,0.056,0.0619,0.0638,0.0703,0.0702,0.0693,0.064,0.0619,0.0572,0.0554,0.0566,0.0538,0.0498,0.0455,0.043,0.051,0.0525,0.0525,0.0525,0,0.0352,0.0383,0.0404,0.0392,0.0418,0.0438,0.0455,0.0501,0.0544,0.0629,0.0664,0.0695,0.0739,0.0701,0.0647,0.0593,0.0571,0.0562,0.0541,0.0531,0.0458,0.0417,0.0485,0.0541,0.0541,0.0542,0.0542,0,0.0389,0.0386,0.0403,0.0399,0.0398,0.0433,0.0469,0.0504,0.0577,0.0625,0.0709,0.0751,0.0738,0.0714,0.065,0.0609,0.057,0.0564,0.055,0.0492,0.0453,0.0503,0.0511,0.0543,0.0543,0.0543,0.0543,0.0543,0.0385,0.037,0.0376,0.0365,0.0369,0.0441,0.047,0.0538,0.0607,0.0706,0.0732,0.0821,0.0801,0.0721,0.0646,0.0562,0.0558,0.0541,0.0492,0.0456,0.0536,0.0561,0.0558,0.0558,0.0558,0.0558,0.0558,0,0.0362,0.0356,0.0348,0.0336,0.0359,0.0397,0.0488,0.0535,0.0615,0.0743,0.0805,0.0924,0.0819,0.0756,0.0613,0.0525,0.0521,0.0487,0.0439,0.0523,0.054,0.0547,0.0547,0.0547,0.0547,0.0547,0.0547,0.0547,0.0323,0.0323,0.0326,0.0341,0.0351,0.043,0.049,0.0559,0.0669,0.0849,0.1002,0.1133,0.1265,0.0763,0.055,0.0479,0.0472,0.0368,0.0442,0.0425,0.0427,0.0428,0.043,0.0406,0.0405,0.0488,0.0488,0.0488]}],[{"header":{"parameterUnit":"m.s-1","parameterCategory":2,"la1":30.2991,"la2":30.254,"lo1":-89.0895,"lo2":-89.0444,"dy":0.0017,"dx":0.0017,"nx":28,"ny":28,"refTime":"2023-07-20T09:00:00:Z","depth":"2","parameterNumber":2,"parameterNumberName":"U-component_of_CURRENTS"},"data":[0,0,0,0,0,0,0,0,0,0,0,0,0,0,0,0,0,0,0,0,0,0,0,0,0,0,0,0,0,0,0,0,0,0,0,0,0,0,0,0,0,0,0,0,0,0,0,0,0,0,0,0,0,0,0,0,0,0,0.2204,0.2206,0,0.2171,0.2169,0.2167,0.2018,0.2016,0.2015,0.2014,0.2131,0.2135,0.214,0,0,0,0,0,0,0,0,0,0,0,0,0,0.2018,0.2021,0.2204,0.2206,0.2208,0.2172,0.2169,0.2166,0.2018,0.2016,0.2015,0.2013,0.213,0.2135,0.214,0,0,0,0,0,0,0,0,0,0,0,0,0,0.2032,0.2022,0.2204,0.2147,0.2143,0.2172,0.2169,0.2166,0.2018,0.2016,0.2014,0.2012,0.2128,0.2134,0.2141,0.2221,0,0,0.2161,0.2163,0,0,0,0,0,0,0,0,0.2031,0.2035,0.2153,0.2151,0.2147,0.2117,0.2148,0.22,0.2019,0.2041,0.2014,0.2012,0.2158,0.2161,0.2124,0.2227,0.2232,0.2161,0.2165,0.2168,0.217,0,0,0,0,0,0,0,0.203,0.2036,0.2167,0.2156,0.2152,0.2084,0.2081,0.2153,0.2095,0.2039,0.2034,0.2068,0.2153,0.2117,0.2126,0.2233,0.2161,0.2167,0.2171,0.2173,0.2154,0.2149,0,0,0,0,0,0,0.2092,0.2036,0.2169,0.2169,0.211,0.2091,0.2087,0.2109,0.2091,0.2092,0.207,0.2062,0.2107,0.2119,0.2131,0.2157,0.2168,0.2174,0.2178,0.2158,0.2153,0.2148,0,0,0,0,0,0,0.2087,0.2103,0.217,0.212,0.2127,0.2099,0.2123,0.2111,0.2015,0.2118,0.2115,0.1984,0.2106,0.2121,0.2188,0.2164,0.2177,0.2183,0.2163,0.2156,0.215,0.2258,0,0,0,0,0,0,0.2081,0.2101,0.2081,0.2125,0.2133,0.2125,0.2128,0.2112,0.2056,0.2041,0.2047,0.2057,0.2106,0.2178,0.2195,0.2174,0.2188,0.2169,0.216,0.2152,0.226,0.2255,0.2252,0,0,0,0,0,0.2074,0.2037,0.208,0.2095,0.2126,0.2125,0.2116,0.2076,0.2053,0.1982,0.2043,0.2053,0.213,0.2186,0.2204,0.2184,0.2173,0.2163,0.2153,0.2261,0.2256,0.2252,0,0,0,0,0,0,0.1939,0.2025,0.2069,0.2061,0.2085,0.2107,0.2095,0.2044,0.2022,0.2084,0.2083,0.21,0.2096,0.2119,0.2176,0.2124,0.2118,0.2112,0.2193,0.2188,0.2185,0.2341,0.2194,0,0,0,0,0,0.1924,0.1896,0.2003,0.1978,0.2054,0.2067,0.205,0.2065,0.2093,0.2072,0.2043,0.2061,0.2074,0.2123,0.2107,0.2179,0.2174,0.2132,0.2128,0.2126,0.2248,0.2214,0.2224,0.2115,0.2115,0.2115,0,0,0.1884,0.1908,0.1906,0.1945,0.2015,0.2067,0.2043,0.2096,0.2065,0.2115,0.2039,0.2041,0.2066,0.2095,0.2094,0.2134,0.2119,0.2113,0.2114,0.2241,0.2206,0.2218,0.223,0.2108,0.2109,0.211,0,0,0.181,0.1847,0.1853,0.1914,0.204,0.2044,0.2047,0.2084,0.2039,0.2088,0.2031,0.2095,0.2078,0.2111,0.2139,0.2118,0.2055,0.1981,0.2183,0.2144,0.2158,0.217,0.207,0.2073,0.2039,0.2039,0.2039,0,0.177,0.1784,0.1839,0.1919,0.1972,0.2029,0.2096,0.2069,0.2056,0.2036,0.2094,0.2043,0.214,0.2133,0.2202,0.2137,0.2047,0.2226,0.2156,0.2169,0.218,0.2075,0.2077,0.2043,0.2042,0.2042,0.2041,0,0.1749,0.1794,0.1834,0.1927,0.1964,0.2035,0.2123,0.2059,0.2072,0.2065,0.2039,0.2168,0.216,0.2143,0.2288,0.2299,0.2175,0.2116,0.2212,0.2201,0.2084,0.2085,0.2048,0.2047,0.2046,0.2045,0,0,0.165,0.1775,0.1814,0.1836,0.2005,0.2002,0.2035,0.2021,0.2014,0.2035,0.2,0.2176,0.2224,0.2262,0.227,0.2396,0.2489,0.2381,0.2376,0.2361,0.2318,0.2156,0.2139,0.2379,0.2382,0.2384,0.2169,0,0.1638,0.1681,0.1777,0.181,0.1871,0.1968,0.1949,0.197,0.2034,0.1993,0.2108,0.2133,0.2235,0.2325,0.2432,0.247,0.251,0.2551,0.2269,0.2263,0.2188,0.2146,0.206,0.1857,0.217,0.217,0.2171,0,0.1642,0.1643,0.1705,0.1719,0.1778,0.18,0.1818,0.1843,0.1894,0.1985,0.2059,0.2092,0.2255,0.2375,0.243,0.2414,0.2439,0.2476,0.2461,0.2325,0.2109,0.1929,0.1847,0.2172,0.2172,0.2172,0.2172,0,0.1531,0.1576,0.1552,0.1607,0.1686,0.1703,0.1725,0.1838,0.1853,0.2005,0.2091,0.2126,0.2224,0.2251,0.2429,0.2413,0.2469,0.2378,0.2174,0.2154,0.2057,0.2026,0.2407,0.2407,0.2408,0.2408,0.2409,0,0.1518,0.1483,0.1475,0.1554,0.149,0.1617,0.1652,0.1745,0.1849,0.1916,0.2082,0.2114,0.224,0.2261,0.2353,0.2281,0.2342,0.2251,0.2123,0.2064,0.2038,0.2323,0.2316,0.24,0.2402,0.2404,0.2405,0,0.1506,0.1497,0.1463,0.1505,0.1512,0.1506,0.1599,0.1612,0.1794,0.1907,0.196,0.2073,0.2093,0.2121,0.2196,0.2166,0.2152,0.209,0.2004,0.1874,0.1848,0.1847,0.1765,0.1758,0.1752,0.1748,0.1744,0,0.1483,0.15,0.1494,0.1449,0.15,0.1481,0.1511,0.1626,0.1703,0.1865,0.1907,0.1916,0.1898,0.1843,0.1828,0.1736,0.1894,0.1641,0.1659,0.1916,0.1799,0.1807,0.1814,0.1501,0.1496,0.1491,0.1488,0,0.1471,0.1483,0.1465,0.1466,0.1449,0.1378,0.1453,0.1471,0.1646,0.1734,0.1783,0.1741,0.1632,0.1501,0.1428,0.1386,0.1654,0.1529,0.1832,0.1684,0.1653,0.1542,0.1561,0.1446,0.145,0.1453,0.1456,0.1457,0.1408,0.137,0.1389,0.1377,0.1358,0.1329,0.1315,0.134,0.14,0.1548,0.1554,0.1485,0.1392,0.1114,0.1112,0.1137,0.1167,0.122,0.1242,0.1266,0.1282,0.1244,0.0958,0.096,0.0961,0.0962,0.0962,0,0.1289,0.1298,0.128,0.1268,0.1282,0.1293,0.1301,0.1244,0.1306,0.1363,0.1348,0.1069,0.096,0.0904,0.0867,0.086,0.0932,0.0862,0.1007,0.1043,0.1077,0.1094,0.0714,0.0714,0.0714,0.0714,0,0,0.1224,0.1168,0.1206,0.12,0.1238,0.1168,0.1164,0.107,0.1042,0.0991,0.0954,0.0892,0.0842,0.0742,0.0738,0.0767,0.0911,0.0732,0.092,0.1125,0.116,0.1252,0.131,0,0,0,0,0]},{"header":{"parameterUnit":"m.s-1","parameterCategory":2,"la1":30.2991,"la2":30.254,"lo1":-89.0895,"lo2":-89.0444,"dy":0.0017,"dx":0.0017,"nx":28,"ny":28,"refTime":"2023-07-20T09:00:00:Z","depth":"2","parameterNumber":3,"parameterNumberName":"V-component_of_CURRENTS"},"data":[0,0,0,0,0,0,0,0,0,0,0,0,0,0,0,0,0,0,0,0,0,0,0,0,0,0,0,0,0,0,0,0,0,0,0,0,0,0,0,0,0,0,0,0,0,0,0,0,0,0,0,0,0,0,0,0,0,0,-0.0186,-0.0185,0,-0.0174,-0.0175,-0.0176,-0.0154,-0.0152,-0.015,-0.0148,-0.0048,-0.0047,-0.0046,0,0,0,0,0,0,0,0,0,0,0,0,0,-0.0161,-0.0163,-0.0186,-0.0185,-0.0183,-0.0174,-0.0175,-0.0176,-0.0154,-0.0152,-0.015,-0.0148,-0.0049,-0.0047,-0.0046,0,0,0,0,0,0,0,0,0,0,0,0,0,-0.0177,-0.0164,-0.0187,-0.016,-0.0157,-0.0173,-0.0175,-0.0176,-0.0154,-0.0152,-0.0149,-0.0147,-0.0049,-0.0047,-0.0046,-0.009,0,0,-0.0041,-0.0041,0,0,0,0,0,0,0,0,-0.0176,-0.018,-0.0166,-0.0162,-0.0158,-0.015,-0.0128,-0.0138,-0.0155,-0.0171,-0.0148,-0.0145,-0.0066,-0.0063,-0.0089,-0.0085,-0.0081,-0.0041,-0.004,-0.004,-0.0039,0,0,0,0,0,0,0,-0.0175,-0.018,-0.0196,-0.0164,-0.0159,-0.0137,-0.0139,-0.0132,-0.0144,-0.0169,-0.0164,-0.014,-0.0065,-0.0091,-0.0086,-0.0079,-0.0041,-0.004,-0.0039,-0.0038,-0.0028,-0.0028,0,0,0,0,0,0,-0.0152,-0.018,-0.0196,-0.0194,-0.0144,-0.0139,-0.0141,-0.0167,-0.0145,-0.0136,-0.0142,-0.0139,-0.0095,-0.0088,-0.0082,-0.0053,-0.004,-0.0038,-0.0037,-0.0027,-0.0028,-0.0028,0,0,0,0,0,0,-0.0153,-0.0156,-0.0197,-0.0171,-0.0173,-0.0141,-0.0171,-0.0168,-0.0204,-0.0123,-0.0114,-0.018,-0.0092,-0.0084,-0.0023,-0.0051,-0.0037,-0.0036,-0.0026,-0.0027,-0.0028,-0.0044,0,0,0,0,0,0,-0.0153,-0.0158,-0.0207,-0.0172,-0.0173,-0.0208,-0.0172,-0.0169,-0.0185,-0.0181,-0.0152,-0.014,-0.009,-0.0025,-0.0021,-0.0049,-0.0035,-0.0025,-0.0027,-0.0028,-0.0043,-0.0046,-0.0048,0,0,0,0,0,-0.0154,-0.0184,-0.0211,-0.0213,-0.0231,-0.0208,-0.021,-0.0186,-0.0189,-0.0212,-0.0145,-0.0141,-0.0032,-0.0022,-0.0018,-0.0046,-0.0025,-0.0026,-0.0028,-0.0042,-0.0045,-0.0048,0,0,0,0,0,0,-0.0154,-0.0184,-0.0211,-0.0243,-0.0238,-0.0198,-0.0182,-0.0213,-0.0195,-0.0148,-0.0127,-0.0109,-0.0077,-0.0061,-0.0054,-0.0049,-0.004,-0.004,-0.0052,-0.0055,-0.0057,0.0029,-0.0034,0,0,0,0,0,-0.0193,-0.027,-0.0244,-0.0285,-0.0247,-0.0243,-0.0243,-0.0218,-0.0174,-0.0169,-0.0178,-0.0138,-0.0088,-0.0064,-0.0034,-0.0026,-0.0,-0.005,-0.0052,-0.0054,0.0017,-0.0003,-0.0,-0.0033,-0.0033,-0.0033,0,0,-0.021,-0.0233,-0.0279,-0.0299,-0.0265,-0.0234,-0.0237,-0.0188,-0.0203,-0.0153,-0.0185,-0.0151,-0.0088,-0.0055,-0.0046,-0.0038,-0.0037,-0.0056,-0.0058,0.0017,-0.0004,-0.0001,0.0003,-0.0034,-0.0034,-0.0034,0,0,-0.0193,-0.0272,-0.0277,-0.0274,-0.0218,-0.0226,-0.0225,-0.0207,-0.0223,-0.0212,-0.0184,-0.0135,-0.0131,-0.0075,-0.0037,-0.0041,-0.0054,-0.009,-0.0024,-0.0048,-0.0044,-0.004,-0.0021,-0.0015,-0.0088,-0.0088,-0.0088,0,-0.0183,-0.0226,-0.027,-0.0222,-0.0213,-0.0228,-0.0177,-0.0207,-0.0212,-0.0209,-0.0199,-0.016,-0.0113,-0.0049,-0.0013,-0.0043,-0.005,-0.0017,-0.0048,-0.0044,-0.004,-0.0021,-0.0014,-0.0089,-0.0088,-0.0088,-0.0088,0,-0.017,-0.0173,-0.0139,-0.0148,-0.0155,-0.0111,-0.0113,-0.0164,-0.0192,-0.0203,-0.0178,-0.0114,-0.0073,-0.0091,-0.0011,0.001,-0.0004,-0.0057,-0.0036,-0.0037,-0.0018,-0.0011,-0.009,-0.009,-0.0089,-0.0089,0,0,-0.0175,-0.0143,-0.0131,-0.0117,-0.0107,-0.0105,-0.0117,-0.0131,-0.0125,-0.0157,-0.0147,-0.0055,-0.0037,0.0012,0.0025,0.0049,0.0085,0.0035,0.0034,0.0068,0.0056,0.0073,0.0083,-0.0002,-0.0001,0.0,0.0052,0,-0.0127,-0.0066,-0.0079,-0.0048,0.0004,-0.0034,-0.0066,-0.0085,-0.0087,-0.0105,-0.0057,-0.001,-0.0009,0.005,0.0057,0.0083,0.0106,0.008,0.0047,0.0049,0.0073,0.0093,0.0032,0.0075,0.0059,0.006,0.0061,0,-0.0099,-0.0071,0.0006,0.0003,0.0027,0.0019,-0.0021,-0.0036,-0.0031,-0.0003,0.004,0.0057,0.012,0.0113,0.0138,0.0107,0.0122,0.0129,0.0127,0.0178,0.0081,0.0077,0.0089,0.0073,0.0072,0.0071,0.007,0,-0.0088,-0.0035,0.0001,0.0008,0.0031,0.0036,0.0002,0.001,0.0016,0.0081,0.0138,0.0146,0.0192,0.0174,0.0196,0.0169,0.0214,0.0144,0.017,0.017,0.0145,0.0141,0.0185,0.0185,0.0185,0.0185,0.0185,0,-0.0039,-0.001,0.0006,0.0059,0.006,0.006,0.0086,0.0089,0.0119,0.0178,0.0201,0.0244,0.0215,0.0214,0.021,0.0221,0.0197,0.0238,0.0195,0.0134,0.0129,0.015,0.0145,0.0187,0.0187,0.0186,0.0186,0,0.0041,0.0047,0.0096,0.0116,0.0116,0.0118,0.0115,0.0124,0.0186,0.0272,0.0306,0.0315,0.0334,0.0295,0.0292,0.0261,0.0261,0.0269,0.0233,0.0188,0.0237,0.023,0.0317,0.0318,0.0319,0.032,0.0321,0,0.0067,0.0133,0.0166,0.0148,0.018,0.0168,0.0167,0.018,0.022,0.0313,0.0359,0.0394,0.0417,0.0392,0.0334,0.0313,0.0306,0.0281,0.0246,0.0307,0.0256,0.0247,0.0239,0.019,0.019,0.019,0.019,0,0.0147,0.0183,0.0212,0.0233,0.0222,0.0207,0.022,0.026,0.0317,0.0399,0.0476,0.0494,0.0467,0.0385,0.0358,0.0328,0.0275,0.0279,0.0327,0.0172,0.0192,0.014,0.0135,0.0187,0.0187,0.0187,0.0187,0.0188,0.0182,0.0178,0.023,0.0237,0.0231,0.026,0.0276,0.0306,0.0386,0.0529,0.0513,0.0561,0.0428,0.0372,0.03,0.0266,0.0293,0.0265,0.0263,0.0262,0.0244,0.0266,0.0273,0.0274,0.0275,0.0275,0.0276,0,0.0189,0.0195,0.0199,0.0217,0.0239,0.0253,0.0313,0.0331,0.0449,0.0568,0.0624,0.0485,0.0408,0.0323,0.0252,0.0207,0.0171,0.0201,0.0135,0.0139,0.0141,0.0115,0.0111,0.011,0.011,0.011,0,0,0.0176,0.0197,0.0199,0.0224,0.0249,0.0289,0.0337,0.0379,0.0453,0.0554,0.0607,0.0578,0.0442,0.0334,0.0217,0.0188,0.0193,0.0183,0.0317,0.0255,0.0259,0.0174,0.0137,0,0,0,0,0]}],[{"header":{"parameterUnit":"m.s-1","parameterCategory":2,"la1":30.2991,"la2":30.254,"lo1":-89.0895,"lo2":-89.0444,"dy":0.0017,"dx":0.0017,"nx":28,"ny":28,"refTime":"2023-07-20T09:00:00:Z","depth":"4","parameterNumber":2,"parameterNumberName":"U-component_of_CURRENTS"},"data":[0,0,0,0,0,0,0,0,0,0,0,0,0,0,0,0,0,0,0,0,0,0,0,0,0,0,0,0,0,0,0,0,0,0,0,0,0,0,0,0,0,0,0,0,0,0,0,0,0,0,0,0,0,0,0,0,0,0,-0.0731,-0.0732,0,-0.0778,-0.0778,-0.0777,-0.0803,-0.0804,-0.0805,-0.0806,-0.0927,-0.0929,-0.0931,0,0,0,0,0,0,0,0,0,0,0,0,0,-0.0615,-0.0616,-0.073,-0.0732,-0.0734,-0.0778,-0.0778,-0.0777,-0.0803,-0.0804,-0.0805,-0.0807,-0.0926,-0.0929,-0.0931,0,0,0,0,0,0,0,0,0,0,0,0,0,-0.0653,-0.0617,-0.073,-0.076,-0.0764,-0.0778,-0.0778,-0.0777,-0.0802,-0.0804,-0.0806,-0.0807,-0.0925,-0.0929,-0.0932,-0.0919,0,0,-0.0942,-0.0943,0,0,0,0,0,0,0,0,-0.0651,-0.0656,-0.0754,-0.0758,-0.0763,-0.0796,-0.0782,-0.0832,-0.0802,-0.0776,-0.0806,-0.0808,-0.0896,-0.0902,-0.089,-0.0925,-0.093,-0.0942,-0.0944,-0.0946,-0.0947,0,0,0,0,0,0,0,-0.0649,-0.0654,-0.0738,-0.0756,-0.0761,-0.0756,-0.0762,-0.079,-0.0819,-0.0778,-0.0783,-0.0806,-0.0898,-0.0887,-0.0894,-0.0932,-0.0942,-0.0945,-0.0947,-0.0948,-0.1084,-0.1086,0,0,0,0,0,0,-0.0666,-0.0652,-0.0737,-0.074,-0.0723,-0.0758,-0.0764,-0.0774,-0.0817,-0.0828,-0.0804,-0.0807,-0.088,-0.089,-0.0898,-0.1009,-0.0946,-0.0949,-0.0951,-0.1082,-0.1084,-0.1086,0,0,0,0,0,0,-0.0663,-0.0673,-0.0735,-0.0707,-0.0716,-0.076,-0.077,-0.0775,-0.0798,-0.0838,-0.0848,-0.0829,-0.0882,-0.0894,-0.0931,-0.101,-0.095,-0.0953,-0.108,-0.1083,-0.1085,-0.1153,0,0,0,0,0,0,-0.0659,-0.0671,-0.0668,-0.0708,-0.0719,-0.0761,-0.077,-0.0775,-0.0814,-0.0818,-0.0862,-0.0872,-0.0884,-0.0926,-0.0935,-0.1013,-0.0956,-0.1078,-0.1082,-0.1084,-0.1149,-0.1158,-0.1165,0,0,0,0,0,-0.0655,-0.0653,-0.0667,-0.0677,-0.0718,-0.0763,-0.0766,-0.0794,-0.0814,-0.0821,-0.0843,-0.0873,-0.0954,-0.0928,-0.0938,-0.1021,-0.1077,-0.1081,-0.1084,-0.1145,-0.1156,-0.1165,0,0,0,0,0,0,-0.0621,-0.0658,-0.0674,-0.0689,-0.0733,-0.0772,-0.079,-0.081,-0.0829,-0.0844,-0.087,-0.0881,-0.0958,-0.0962,-0.0934,-0.1067,-0.1031,-0.1036,-0.1074,-0.1084,-0.1092,-0.1095,-0.0959,0,0,0,0,0,-0.0609,-0.0601,-0.0663,-0.0675,-0.071,-0.0753,-0.0773,-0.0798,-0.0832,-0.0843,-0.0876,-0.0918,-0.0973,-0.1004,-0.104,-0.1092,-0.1093,-0.1157,-0.1165,-0.1172,-0.1181,-0.1233,-0.1247,-0.1098,-0.1098,-0.1098,0,0,-0.0595,-0.0621,-0.0615,-0.0664,-0.0707,-0.0751,-0.0768,-0.0818,-0.0845,-0.0855,-0.09,-0.0949,-0.0992,-0.106,-0.1097,-0.1077,-0.1212,-0.1177,-0.1183,-0.1187,-0.1238,-0.1253,-0.1266,-0.1101,-0.11,-0.11,0,0,-0.0593,-0.0606,-0.0617,-0.0663,-0.0738,-0.0755,-0.0781,-0.0842,-0.0863,-0.0904,-0.0941,-0.1008,-0.1075,-0.1119,-0.1153,-0.122,-0.1255,-0.1272,-0.1319,-0.137,-0.1383,-0.1394,-0.1398,-0.1409,-0.1274,-0.1275,-0.1275,0,-0.0601,-0.0615,-0.063,-0.0687,-0.0727,-0.0767,-0.0818,-0.0838,-0.0893,-0.0918,-0.0931,-0.1068,-0.1098,-0.1205,-0.1241,-0.1242,-0.1272,-0.128,-0.1381,-0.1393,-0.1403,-0.1404,-0.1416,-0.1278,-0.1278,-0.1277,-0.1277,0,-0.0604,-0.065,-0.0679,-0.0739,-0.0768,-0.0825,-0.0874,-0.0909,-0.0943,-0.0964,-0.1076,-0.1126,-0.1223,-0.1257,-0.1274,-0.1396,-0.1392,-0.1387,-0.1356,-0.1422,-0.1419,-0.1429,-0.1284,-0.1282,-0.1281,-0.128,0,0,-0.0576,-0.0665,-0.0679,-0.0733,-0.081,-0.084,-0.0892,-0.0946,-0.1001,-0.1057,-0.1149,-0.1243,-0.1308,-0.1351,-0.1415,-0.1455,-0.1543,-0.1474,-0.1475,-0.1476,-0.1653,-0.139,-0.1376,-0.1585,-0.1588,-0.159,-0.1614,0,-0.0604,-0.0691,-0.071,-0.0795,-0.0867,-0.0914,-0.095,-0.0995,-0.105,-0.1138,-0.1214,-0.1326,-0.1337,-0.1441,-0.1487,-0.1544,-0.158,-0.1535,-0.1589,-0.1589,-0.1348,-0.1382,-0.1599,-0.1621,-0.1624,-0.1626,-0.1627,0,-0.0613,-0.0677,-0.0783,-0.0859,-0.089,-0.0933,-0.1019,-0.1068,-0.1173,-0.1237,-0.1365,-0.1431,-0.1551,-0.1552,-0.1655,-0.1646,-0.1668,-0.1673,-0.1675,-0.1413,-0.1346,-0.1547,-0.1646,-0.1644,-0.1643,-0.1642,-0.164,0,-0.06,-0.071,-0.0793,-0.0839,-0.0947,-0.0996,-0.1024,-0.1112,-0.1177,-0.1349,-0.1427,-0.1555,-0.1649,-0.1713,-0.1713,-0.1733,-0.1774,-0.179,-0.1559,-0.154,-0.1743,-0.1731,-0.1854,-0.1854,-0.1854,-0.1854,-0.1854,0,-0.0621,-0.0681,-0.0813,-0.0886,-0.0946,-0.1023,-0.1101,-0.1171,-0.1317,-0.1367,-0.1516,-0.1555,-0.1702,-0.1724,-0.1746,-0.1646,-0.1799,-0.1561,-0.1531,-0.1766,-0.1757,-0.1749,-0.1736,-0.1855,-0.1855,-0.1854,-0.1854,0,-0.0599,-0.0699,-0.0811,-0.0944,-0.0977,-0.1031,-0.1118,-0.1159,-0.1336,-0.1437,-0.1508,-0.16,-0.1546,-0.1608,-0.1653,-0.1632,-0.1597,-0.1526,-0.1735,-0.1718,-0.1334,-0.1326,-0.1302,-0.1293,-0.1285,-0.1279,-0.1274,0,-0.0578,-0.0673,-0.084,-0.0886,-0.0955,-0.1032,-0.1045,-0.1176,-0.1212,-0.1377,-0.1384,-0.141,-0.1413,-0.1253,-0.1334,-0.1326,-0.1306,-0.1366,-0.1388,-0.1305,-0.1281,-0.1284,-0.1285,-0.1262,-0.126,-0.1258,-0.1256,0,-0.0566,-0.0671,-0.0763,-0.0876,-0.0923,-0.0902,-0.0937,-0.0964,-0.1092,-0.1273,-0.1194,-0.1183,-0.1071,-0.1026,-0.1021,-0.1025,-0.1386,-0.1287,-0.1304,-0.1325,-0.1256,-0.1239,-0.125,-0.1229,-0.1233,-0.1235,-0.1237,0,-0.0561,-0.0596,-0.0762,-0.0816,-0.0857,-0.0764,-0.0769,-0.0739,-0.0796,-0.0993,-0.0908,-0.0907,-0.0964,-0.0858,-0.0842,-0.0819,-0.0822,-0.0908,-0.0946,-0.0977,-0.0858,-0.0722,-0.0497,0,0,0,0,0,-0.0544,-0.0572,-0.0652,-0.0681,-0.0692,-0.0691,-0.0696,-0.0706,-0.0823,-0.0712,-0.0834,-0.0698,-0.0638,-0.0619,-0.0519,-0.0697,-0.0841,-0.0591,-0.0963,-0.1082,-0.1113,-0.1002,0,0,0,0,0,0,-0.0546,-0.0624,-0.0646,-0.0563,-0.0531,-0.0475,-0.0457,-0.0499,-0.0429,-0.0577,-0.0475,-0.0666,-0.0536,-0.0637,-0.0496,-0.051,-0.0737,-0.0626,-0.0625,-0.1064,-0.1092,-0.1117,-0.1014,0,0,0,0,0]},{"header":{"parameterUnit":"m.s-1","parameterCategory":2,"la1":30.2991,"la2":30.254,"lo1":-89.0895,"lo2":-89.0444,"dy":0.0017,"dx":0.0017,"nx":28,"ny":28,"refTime":"2023-07-20T09:00:00:Z","depth":"4","parameterNumber":3,"parameterNumberName":"V-component_of_CURRENTS"},"data":[0,0,0,0,0,0,0,0,0,0,0,0,0,0,0,0,0,0,0,0,0,0,0,0,0,0,0,0,0,0,0,0,0,0,0,0,0,0,0,0,0,0,0,0,0,0,0,0,0,0,0,0,0,0,0,0,0,0,0.0197,0.0198,0,0.0203,0.0203,0.0203,0.0233,0.0234,0.0235,0.0236,0.0384,0.0387,0.039,0,0,0,0,0,0,0,0,0,0,0,0,0,0.0253,0.0252,0.0197,0.0198,0.0198,0.0203,0.0203,0.0203,0.0233,0.0234,0.0236,0.0237,0.0383,0.0387,0.039,0,0,0,0,0,0,0,0,0,0,0,0,0,0.0239,0.0251,0.0197,0.0215,0.0217,0.0203,0.0203,0.0203,0.0233,0.0234,0.0236,0.0237,0.0382,0.0386,0.0391,0.0391,0,0,0.0405,0.0407,0,0,0,0,0,0,0,0,0.0239,0.0236,0.0213,0.0214,0.0216,0.0221,0.0277,0.0274,0.0233,0.0225,0.0236,0.0238,0.0343,0.0351,0.0344,0.0398,0.0404,0.0405,0.0408,0.041,0.0411,0,0,0,0,0,0,0,0.024,0.0237,0.0197,0.0213,0.0215,0.0238,0.0236,0.0276,0.0277,0.0225,0.0228,0.0232,0.0345,0.0339,0.0348,0.0406,0.0405,0.0409,0.0412,0.0414,0.0506,0.0505,0,0,0,0,0,0,0.024,0.0237,0.0197,0.0198,0.0234,0.0235,0.0234,0.0216,0.0273,0.0283,0.0231,0.0234,0.033,0.0342,0.0353,0.0396,0.041,0.0414,0.0417,0.0506,0.0506,0.0505,0,0,0,0,0,0,0.0241,0.0236,0.0197,0.0221,0.0218,0.0233,0.0213,0.0216,0.022,0.0276,0.0289,0.0234,0.0332,0.0347,0.0372,0.0401,0.0416,0.0421,0.0506,0.0506,0.0505,0.0457,0,0,0,0,0,0,0.0242,0.0235,0.0236,0.022,0.0217,0.0196,0.0212,0.0215,0.0221,0.0224,0.0283,0.0297,0.0334,0.0365,0.0377,0.0408,0.0424,0.0507,0.0506,0.0506,0.0459,0.0455,0.0452,0,0,0,0,0,0.0244,0.0225,0.0235,0.0232,0.0211,0.0196,0.0196,0.0211,0.0219,0.022,0.0241,0.0296,0.0371,0.0367,0.0382,0.0415,0.0507,0.0506,0.0506,0.0461,0.0456,0.0452,0,0,0,0,0,0,0.0242,0.0226,0.0237,0.0214,0.0214,0.0203,0.021,0.0209,0.0222,0.0228,0.0277,0.0292,0.0338,0.0367,0.0361,0.0437,0.0455,0.0457,0.0416,0.0412,0.0408,0.0406,0.0428,0,0,0,0,0,0.0244,0.0231,0.0222,0.0208,0.0211,0.0211,0.0211,0.0209,0.0214,0.022,0.0254,0.0295,0.0342,0.0366,0.0411,0.0436,0.0471,0.047,0.0466,0.0463,0.0469,0.0532,0.0535,0.0503,0.0503,0.0503,0,0,0.0239,0.0231,0.0225,0.021,0.0214,0.0198,0.0214,0.0204,0.0194,0.0237,0.0243,0.0288,0.0346,0.038,0.0405,0.041,0.0483,0.0462,0.0459,0.0467,0.0532,0.0535,0.0538,0.0503,0.0503,0.0503,0,0,0.0219,0.0219,0.0207,0.0206,0.0207,0.0194,0.0191,0.0179,0.0189,0.019,0.0229,0.026,0.0328,0.0358,0.0389,0.0384,0.0466,0.0428,0.0406,0.0466,0.0469,0.0473,0.0491,0.0496,0.042,0.042,0.042,0,0.0212,0.0194,0.0203,0.0193,0.0181,0.0189,0.0161,0.017,0.0164,0.0164,0.0194,0.0262,0.0313,0.0347,0.0362,0.0378,0.0426,0.0418,0.0462,0.0466,0.0471,0.0489,0.0496,0.0418,0.0418,0.0418,0.0418,0,0.018,0.0178,0.0172,0.0155,0.014,0.012,0.0119,0.0116,0.0126,0.0129,0.0168,0.0221,0.0269,0.0296,0.0341,0.04,0.0426,0.0455,0.0474,0.0472,0.049,0.0498,0.0414,0.0415,0.0416,0.0416,0,0,0.0121,0.0141,0.0139,0.0129,0.0113,0.0081,0.0075,0.0055,0.0042,0.0081,0.0077,0.0167,0.0212,0.025,0.0309,0.036,0.0429,0.0438,0.0442,0.0455,0.0558,0.0413,0.0408,0.0493,0.0495,0.0497,0.0546,0,0.0092,0.0073,0.0071,0.0029,0.002,0.0012,-0.0008,-0.0022,-0.0004,0.0001,0.007,0.0113,0.0194,0.0236,0.0303,0.0415,0.0456,0.0412,0.0559,0.0562,0.0434,0.0414,0.0503,0.0553,0.0555,0.0556,0.0557,0,0.0052,0.0053,0.0015,-0.0024,-0.0038,-0.0081,-0.0131,-0.0139,-0.0114,-0.0088,-0.0028,0.0045,0.0144,0.021,0.0387,0.0375,0.0473,0.0537,0.0542,0.0433,0.0432,0.0565,0.0573,0.0571,0.057,0.0569,0.0568,0,0.0018,-0.0007,-0.0044,-0.0052,-0.0086,-0.0128,-0.0161,-0.017,-0.0182,-0.012,-0.0114,0.001,0.0085,0.0238,0.0399,0.0431,0.0561,0.061,0.0545,0.0535,0.0677,0.0673,0.0713,0.0713,0.0713,0.0713,0.0712,0,-0.002,-0.0053,-0.0062,-0.0072,-0.0161,-0.0165,-0.0241,-0.0248,-0.024,-0.026,-0.0139,-0.0127,0.0114,0.0216,0.0371,0.0463,0.0546,0.053,0.0539,0.0648,0.0641,0.068,0.0676,0.0714,0.0714,0.0714,0.0713,0,-0.0056,-0.0055,-0.0094,-0.0129,-0.017,-0.0226,-0.0309,-0.0336,-0.0313,-0.0327,-0.0296,-0.0192,-0.0074,0.0091,0.0307,0.0394,0.0508,0.0512,0.0571,0.0585,0.0452,0.0445,0.0462,0.0457,0.0453,0.045,0.0447,0,-0.0075,-0.0077,-0.0135,-0.0193,-0.0225,-0.0301,-0.0355,-0.0367,-0.0375,-0.0384,-0.0385,-0.0307,-0.0227,-0.0033,0.0126,0.0325,0.0355,0.0431,0.0488,0.042,0.0428,0.0427,0.0425,0.0441,0.044,0.0439,0.0438,0,-0.0086,-0.0101,-0.0132,-0.0243,-0.0325,-0.0405,-0.0463,-0.046,-0.0453,-0.0462,-0.0421,-0.0342,-0.0274,-0.0094,0.0028,0.0182,0.0403,0.0391,0.0402,0.0456,0.0395,0.0406,0.0409,0.0424,0.0426,0.0427,0.0428,0,-0.0105,-0.0127,-0.0176,-0.0285,-0.0409,-0.0472,-0.0488,-0.0488,-0.0494,-0.0452,-0.0461,-0.0379,-0.0311,-0.0181,-0.0067,0.0051,0.0102,0.0217,0.0238,0.0255,0.0166,0.0056,-0.0022,0,0,0,0,0,-0.0116,-0.0125,-0.0223,-0.0324,-0.0455,-0.052,-0.0562,-0.0541,-0.0514,-0.0477,-0.0453,-0.039,-0.0271,-0.023,-0.0134,-0.0165,0.0099,-0.0053,0.0239,0.0347,0.0363,0.0279,0,0,0,0,0,0,-0.0124,-0.0177,-0.0203,-0.0354,-0.0428,-0.0548,-0.056,-0.0533,-0.0484,-0.045,-0.0373,-0.0365,-0.024,-0.0315,-0.013,-0.0113,0.0089,-0.0008,-0.0006,0.0338,0.0353,0.0365,0.0285,0,0,0,0,0]}]]